GW1000 Weather Reports


Display with metric or nautical units.
time (UTC)temp
F
wind
direction
speed
MPH
gust
MPH
rain 1hr
in
rain 24hr
in
rain mn
in
humidity
%
barometer
mb
20260831183426 79 30 0.0 1.0 0.00 0.00 0.00 74 1006.8
20260831182926 79 19 1.0 1.0 0.00 0.00 0.00 74 1006.9
20260831182421 79 31 0.0 0.0 0.00 0.00 0.00 74 1007.0
20260831181916 79 26 0.0 0.0 0.00 0.00 0.00 73 1006.8
20260831181411 80 26 0.0 0.0 0.00 0.00 0.00 73 1006.9
20260831180906 80 18 0.0 1.0 0.00 0.00 0.00 73 1006.8
20260831180400 80 341 1.0 1.0 0.00 0.00 0.00 73 1007.0
20260831175859 80 24 0.0 1.0 0.00 0.00 0.00 73 1006.9
20260831175356 80 356 1.0 1.0 0.00 0.00 0.00 72 1007.0
20260831174852 80 7 0.0 1.0 0.00 0.00 0.00 72 1007.0
20260831174347 80 37 0.0 1.0 0.00 0.00 0.00 72 1006.8
20260831173845 80 11 1.0 2.0 0.00 0.00 0.00 72 1007.0
20260831173340 80 359 0.0 1.0 0.00 0.00 0.00 72 1007.0
20260831172835 80 357 2.0 2.0 0.00 0.00 0.00 72 1006.6
20260831172331 80 11 2.0 2.0 0.00 0.00 0.00 72 1007.0
20260831171831 80 34 2.0 2.0 0.00 0.00 0.00 72 1006.8
20260831171327 80 334 1.0 3.0 0.00 0.00 0.00 72 1006.8
20260831170824 81 291 3.0 3.0 0.00 0.00 0.00 71 1006.6
20260831170320 81 336 2.0 3.0 0.00 0.00 0.00 71 1006.8
20260831165816 81 19 2.0 5.0 0.00 0.00 0.00 71 1006.7
20260831165312 81 326 3.0 5.0 0.00 0.00 0.00 70 1006.6
20260831164808 81 341 2.0 5.0 0.00 0.00 0.00 70 1006.6
20260831164304 81 337 5.0 6.0 0.00 0.00 0.00 70 1006.5
20260831163759 81 328 7.0 7.0 0.00 0.00 0.00 70 1006.6
20260831163255 81 283 4.0 7.0 0.00 0.00 0.00 70 1006.4
20260831162753 81 311 6.0 8.0 0.00 0.00 0.00 69 1006.5
20260831162248 81 340 6.0 7.0 0.00 0.00 0.00 69 1006.3
20260831161742 82 335 6.0 9.0 0.00 0.00 0.00 68 1006.4
20260831161239 82 336 5.0 8.0 0.00 0.00 0.00 68 1006.3
20260831160738 82 342 6.0 9.0 0.00 0.00 0.00 67 1006.6
20260831160233 82 335 5.0 6.0 0.00 0.00 0.00 66 1006.3
20260831155733 82 338 4.0 7.0 0.00 0.00 0.00 66 1006.0
20260831155228 82 4 7.0 9.0 0.00 0.00 0.00 66 1006.5
20260831154724 82 287 6.0 9.0 0.00 0.00 0.00 66 1006.4
20260831154220 83 315 6.0 10.0 0.00 0.00 0.00 65 1006.3
20260831153718 83 348 4.0 10.0 0.00 0.00 0.00 64 1006.1
20260831153209 83 320 3.0 9.0 0.00 0.00 0.00 63 1006.2
20260831152704 84 346 10.0 11.0 0.00 0.00 0.00 63 1006.3
20260831152200 84 347 9.0 11.0 0.00 0.00 0.00 63 1006.1
20260831151654 84 258 12.0 15.0 0.00 0.00 0.00 63 1006.2
20260831151148 84 335 4.0 10.0 0.00 0.00 0.00 62 1006.2
20260831150638 84 342 6.0 11.0 0.00 0.00 0.00 61 1006.0
20260831150133 84 348 5.0 8.0 0.00 0.00 0.00 61 1006.2
20260831145627 84 350 4.0 10.0 0.00 0.00 0.00 61 1006.0
20260831145124 84 302 9.0 11.0 0.00 0.00 0.00 62 1005.9
20260831144619 84 341 9.0 10.0 0.00 0.00 0.00 63 1005.8
20260831144115 84 326 5.0 9.0 0.00 0.00 0.00 63 1006.0
20260831143609 85 342 8.0 13.0 0.00 0.00 0.00 63 1005.9
20260831143104 85 275 5.0 7.0 0.00 0.00 0.00 63 1005.7
20260831142601 84 350 9.0 11.0 0.00 0.00 0.00 63 1005.8
20260831142056 85 337 12.0 14.0 0.00 0.00 0.00 63 1006.0
20260831141554 85 280 6.0 13.0 0.00 0.00 0.00 65 1005.9
20260831141050 85 334 10.0 11.0 0.00 0.00 0.00 63 1005.7
20260831140549 85 268 8.0 11.0 0.00 0.00 0.00 63 1005.6
20260831140049 86 340 14.0 17.0 0.00 0.00 0.00 62 1005.7
20260831135547 86 356 3.0 6.0 0.00 0.00 0.00 63 1005.8
20260831135042 85 82 4.0 9.0 0.00 0.00 0.00 64 1005.8
20260831134538 86 246 11.0 17.0 0.00 0.00 0.00 63 1006.0
20260831134033 86 285 9.0 11.0 0.00 0.00 0.00 62 1005.8
20260831133527 85 341 8.0 10.0 0.00 0.00 0.00 64 1005.9
20260831133022 86 80 6.0 14.0 0.00 0.00 0.00 63 1006.0
20260831132519 87 351 7.0 13.0 0.00 0.00 0.00 61 1005.7
20260831132017 87 347 7.0 11.0 0.00 0.00 0.00 60 1005.8
20260831131517 87 342 9.0 16.0 0.00 0.00 0.00 59 1005.8
20260831131014 86 272 6.0 10.0 0.00 0.00 0.00 59 1005.8
20260831130514 86 357 5.0 8.0 0.00 0.00 0.00 60 1005.6
20260831130009 86 340 5.0 11.0 0.00 0.00 0.00 60 1005.8
20260831125503 87 160 12.0 17.0 0.00 0.00 0.00 58 1005.7
20260831124959 87 280 5.0 11.0 0.00 0.00 0.00 59 1005.8
20260831124455 87 344 10.0 15.0 0.00 0.00 0.00 60 1005.7
20260831123950 87 290 14.0 18.0 0.00 0.00 0.00 59 1005.9
20260831123449 88 5 7.0 11.0 0.00 0.00 0.00 59 1005.7
20260831122944 86 305 6.0 10.0 0.00 0.00 0.00 60 1005.7
20260831122439 86 352 11.0 14.0 0.00 0.00 0.00 61 1005.8
20260831121935 86 14 4.0 10.0 0.00 0.00 0.00 62 1005.8
20260831121430 86 1 6.0 10.0 0.00 0.00 0.00 61 1005.7
20260831120925 87 302 7.0 10.0 0.00 0.00 0.00 60 1005.8
20260831120419 87 341 11.0 15.0 0.00 0.00 0.00 59 1005.7
20260831115914 87 346 14.0 18.0 0.00 0.00 0.00 59 1005.9
20260831115410 88 344 6.0 11.0 0.00 0.00 0.00 56 1005.7
20260831114910 87 342 11.0 15.0 0.00 0.00 0.00 55 1006.0
20260831114409 88 279 6.0 14.0 0.00 0.00 0.00 54 1005.9
20260831113905 87 297 7.0 9.0 0.00 0.00 0.00 56 1005.9
20260831113404 87 340 8.0 11.0 0.00 0.00 0.00 57 1005.8
20260831112859 88 354 9.0 16.0 0.00 0.00 0.00 55 1006.0
20260831112354 87 259 5.0 10.0 0.00 0.00 0.00 56 1005.9
20260831111849 88 341 10.0 14.0 0.00 0.00 0.00 55 1005.8
20260831111345 87 265 5.0 11.0 0.00 0.00 0.00 56 1005.7
20260831110841 87 295 6.0 10.0 0.00 0.00 0.00 55 1005.9
20260831110340 87 327 7.0 10.0 0.00 0.00 0.00 55 1006.0
20260831105839 88 345 10.0 14.0 0.00 0.00 0.00 53 1005.7
20260831105335 87 298 7.0 9.0 0.00 0.00 0.00 55 1006.0
20260831104830 87 259 7.0 10.0 0.00 0.00 0.00 55 1005.8
20260831104327 87 317 4.0 6.0 0.00 0.00 0.00 56 1005.9
20260831103826 87 246 5.0 7.0 0.00 0.00 0.00 57 1005.9
20260831103322 87 1 2.0 6.0 0.00 0.00 0.00 57 1006.0
20260831102817 86 309 2.0 7.0 0.00 0.00 0.00 58 1006.1
20260831102312 87 315 9.0 10.0 0.00 0.00 0.00 57 1006.2
20260831101808 87 279 5.0 7.0 0.00 0.00 0.00 57 1006.0
20260831101303 87 248 5.0 11.0 0.00 0.00 0.00 57 1006.1
20260831100759 87 254 11.0 13.0 0.00 0.00 0.00 57 1006.2
20260831100254 87 281 7.0 14.0 0.00 0.00 0.00 57 1006.3
20260831095754 89 262 8.0 11.0 0.00 0.00 0.00 56 1006.2
20260831095248 88 37 6.0 8.0 0.00 0.00 0.00 56 1006.1
20260831094743 88 278 5.0 8.0 0.00 0.00 0.00 56 1006.0
20260831094239 87 348 10.0 14.0 0.00 0.00 0.00 57 1006.1
20260831093735 87 325 9.0 16.0 0.00 0.00 0.00 57 1006.2
20260831093234 86 317 10.0 11.0 0.00 0.00 0.00 58 1006.2
20260831092731 86 262 3.0 6.0 0.00 0.00 0.00 58 1006.2
20260831092227 86 250 6.0 8.0 0.00 0.00 0.00 59 1006.5
20260831091726 86 346 9.0 13.0 0.00 0.00 0.00 58 1006.4
20260831091222 86 354 7.0 10.0 0.00 0.00 0.00 58 1006.3
20260831090717 85 345 4.0 7.0 0.00 0.00 0.00 60 1006.6
20260831090214 85 339 5.0 11.0 0.00 0.00 0.00 61 1006.4
20260831085709 85 341 9.0 11.0 0.00 0.00 0.00 61 1006.5
20260831085204 85 305 7.0 10.0 0.00 0.00 0.00 61 1006.5
20260831084659 86 87 2.0 5.0 0.00 0.00 0.00 60 1006.4
20260831084155 85 255 7.0 8.0 0.00 0.00 0.00 60 1006.5
20260831083651 85 342 4.0 6.0 0.00 0.00 0.00 61 1006.5
20260831083146 85 343 8.0 10.0 0.00 0.00 0.00 61 1006.5
20260831082644 84 0 5.0 8.0 0.00 0.00 0.00 62 1006.6
20260831082140 84 337 7.0 11.0 0.00 0.00 0.00 63 1006.7
20260831081636 86 278 10.0 11.0 0.00 0.00 0.00 62 1006.5
20260831081131 86 327 2.0 8.0 0.00 0.00 0.00 60 1006.6
20260831080627 86 264 3.0 6.0 0.00 0.00 0.00 60 1006.3
20260831080121 85 311 3.0 6.0 0.00 0.00 0.00 60 1006.6
20260831075617 85 270 7.0 10.0 0.00 0.00 0.00 59 1006.7
20260831075113 84 218 5.0 8.0 0.00 0.00 0.00 62 1006.8
20260831074612 84 4 3.0 8.0 0.00 0.00 0.00 62 1006.6
20260831074107 84 251 4.0 6.0 0.00 0.00 0.00 63 1006.6
20260831073602 84 339 5.0 9.0 0.00 0.00 0.00 63 1006.7
20260831073101 84 192 1.0 5.0 0.00 0.00 0.00 67 1006.6
20260831072556 83 337 7.0 9.0 0.00 0.00 0.00 67 1006.7
20260831072054 82 283 6.0 8.0 0.00 0.00 0.00 68 1006.7
20260831071551 82 309 4.0 5.0 0.00 0.00 0.00 70 1006.9
20260831071047 82 291 9.0 10.0 0.00 0.00 0.00 70 1006.7
20260831070546 82 235 4.0 6.0 0.00 0.00 0.00 71 1006.7
20260831070041 82 238 5.0 7.0 0.00 0.00 0.00 72 1006.6
20260831065538 82 282 2.0 6.0 0.00 0.00 0.00 72 1006.7
20260831065038 83 335 3.0 3.0 0.00 0.00 0.00 71 1006.5
20260831064533 82 355 2.0 7.0 0.00 0.00 0.00 72 1006.9
20260831064029 82 170 5.0 7.0 0.00 0.00 0.00 72 1006.6
20260831063525 81 166 3.0 7.0 0.00 0.00 0.00 74 1007.0
20260831063020 81 277 5.0 6.0 0.00 0.00 0.00 73 1006.7
20260831062515 81 242 4.0 6.0 0.00 0.00 0.00 73 1006.8
20260831062014 81 251 2.0 7.0 0.00 0.00 0.00 72 1006.8
20260831061512 81 235 7.0 8.0 0.00 0.00 0.00 72 1006.5
20260831061008 80 237 4.0 9.0 0.00 0.00 0.00 73 1006.6
20260831060503 81 233 5.0 7.0 0.00 0.00 0.00 74 1006.7
20260831060002 81 191 4.0 6.0 0.00 0.00 0.00 74 1006.5
20260831055457 81 215 6.0 10.0 0.00 0.00 0.00 74 1006.5
20260831054953 80 230 4.0 8.0 0.00 0.00 0.00 74 1006.5
20260831054448 81 214 2.0 8.0 0.00 0.00 0.00 74 1006.4
20260831053947 81 262 2.0 7.0 0.00 0.00 0.00 74 1006.5
20260831053445 80 187 4.0 7.0 0.00 0.00 0.00 74 1006.4
20260831052939 80 236 4.0 9.0 0.00 0.00 0.00 74 1006.4
20260831052434 80 237 7.0 8.0 0.00 0.00 0.00 74 1006.2
20260831051932 80 251 5.0 8.0 0.00 0.00 0.00 74 1006.4
20260831051431 80 229 3.0 6.0 0.00 0.00 0.00 74 1006.3
20260831050926 80 245 3.0 8.0 0.00 0.00 0.00 75 1006.5
20260831050425 80 246 5.0 7.0 0.00 0.00 0.00 75 1006.4
20260831045923 79 270 4.0 6.0 0.00 0.00 0.00 76 1006.4
20260831045418 79 151 4.0 5.0 0.00 0.00 0.00 76 1006.1
20260831044913 79 231 2.0 7.0 0.00 0.00 0.00 77 1006.2
20260831044408 79 196 2.0 6.0 0.00 0.00 0.00 77 1006.4
20260831043904 78 236 7.0 7.0 0.00 0.00 0.00 77 1006.1
20260831043403 78 234 3.0 5.0 0.00 0.00 0.00 78 1006.3
20260831042859 78 219 2.0 3.0 0.00 0.00 0.00 78 1006.3
20260831042358 78 220 1.0 2.0 0.00 0.00 0.00 79 1006.3
20260831041853 77 95 1.0 1.0 0.00 0.00 0.00 80 1006.5
20260831041352 77 57 0.0 1.0 0.00 0.00 0.00 80 1006.0
20260831040847 77 29 0.0 0.0 0.00 0.00 0.00 81 1006.2
20260831040342 77 34 0.0 0.0 0.00 0.00 0.00 81 1006.2
20260831035840 76 29 0.0 1.0 0.00 0.00 0.00 81 1005.9
20260831035339 76 37 0.0 1.0 0.00 0.00 0.00 81 1006.1
20260831034834 76 53 1.0 1.0 0.00 0.00 0.00 81 1006.3
20260831034329 76 52 0.0 0.0 0.00 0.00 0.00 81 1006.2
20260831033825 76 37 0.0 1.0 0.00 0.00 0.00 81 1006.1
20260831033324 76 34 0.0 1.0 0.00 0.00 0.00 81 1006.0
20260831032820 76 48 0.0 0.0 0.00 0.00 0.00 81 1005.8
20260831032314 76 25 0.0 1.0 0.00 0.00 0.00 81 1005.8
20260831031810 77 51 0.0 0.0 0.00 0.00 0.00 81 1005.8
20260831031309 77 101 1.0 1.0 0.00 0.00 0.00 81 1005.7
20260831030804 77 159 1.0 2.0 0.00 0.00 0.00 81 1005.8
20260831030302 77 57 0.0 1.0 0.00 0.00 0.00 80 1005.8
20260831025756 77 113 0.0 1.0 0.00 0.00 0.00 80 1005.9
20260831025250 77 56 0.0 0.0 0.00 0.00 0.00 80 1005.8
20260831024746 77 76 0.0 0.0 0.00 0.00 0.00 80 1005.7
20260831024245 77 158 1.0 1.0 0.00 0.00 0.00 80 1005.8
20260831023744 77 142 1.0 2.0 0.00 0.00 0.00 80 1005.7
20260831023243 77 317 0.0 1.0 0.00 0.00 0.00 80 1005.8
20260831022738 77 207 1.0 2.0 0.00 0.00 0.00 80 1005.8
20260831022237 77 241 1.0 2.0 0.00 0.00 0.00 80 1005.7
20260831021733 77 225 1.0 3.0 0.00 0.00 0.00 80 1005.6
20260831021232 77 183 2.0 2.0 0.00 0.00 0.00 80 1005.5
20260831020729 77 194 1.0 2.0 0.00 0.00 0.00 80 1005.6
20260831020227 77 95 1.0 2.0 0.00 0.00 0.00 80 1005.8
20260831015723 77 26 1.0 1.0 0.00 0.00 0.00 80 1005.5
20260831015219 77 203 3.0 3.0 0.00 0.00 0.00 80 1005.7
20260831014714 77 169 1.0 2.0 0.00 0.00 0.00 79 1005.6
20260831014209 77 214 1.0 2.0 0.00 0.00 0.00 79 1005.5
20260831013705 77 254 1.0 3.0 0.00 0.00 0.00 79 1005.7
20260831013204 77 309 2.0 2.0 0.00 0.00 0.00 79 1005.6
20260831012659 77 326 1.0 1.0 0.00 0.00 0.00 79 1005.5
20260831012155 77 288 1.0 2.0 0.00 0.00 0.00 79 1005.5
20260831011653 77 231 1.0 3.0 0.00 0.00 0.00 79 1005.6
20260831011144 77 207 4.0 6.0 0.00 0.00 0.00 79 1005.6
20260831010639 78 170 4.0 6.0 0.00 0.00 0.00 79 1005.4
20260831010134 78 200 4.0 6.0 0.00 0.00 0.00 79 1005.5
20260831005628 78 189 2.0 5.0 0.00 0.00 0.00 78 1005.6
20260831005118 78 205 3.0 5.0 0.00 0.00 0.00 78 1005.5
20260831004614 78 158 2.0 3.0 0.00 0.00 0.00 78 1005.5
20260831004109 78 217 4.0 5.0 0.00 0.00 0.00 78 1005.5
20260831003605 78 202 2.0 3.0 0.00 0.00 0.00 78 1005.6
20260831003101 78 178 3.0 5.0 0.00 0.00 0.00 78 1005.8
20260831002559 78 201 2.0 5.0 0.00 0.00 0.00 78 1005.3
20260831002055 78 193 3.0 6.0 0.00 0.00 0.00 78 1005.7
20260831001550 78 194 4.0 5.0 0.00 0.00 0.00 78 1005.7
20260831001047 78 196 2.0 3.0 0.00 0.00 0.00 78 1005.5
20260831000543 78 183 3.0 5.0 0.00 0.00 0.00 78 1005.7
20260831000042 78 183 3.0 5.0 0.00 0.00 0.00 78 1005.5
20260830235541 78 211 2.0 3.0 0.00 0.00 0.00 78 1005.7
20260830235036 78 210 3.0 3.0 0.00 0.00 0.00 78 1005.5
20260830234531 78 196 2.0 3.0 0.00 0.00 0.00 78 1005.5
20260830234026 78 208 2.0 3.0 0.00 0.00 0.00 78 1005.4
20260830233521 78 183 1.0 2.0 0.00 0.00 0.00 78 1005.5
20260830233018 78 204 1.0 3.0 0.00 0.00 0.00 78 1005.5
20260830232513 78 180 4.0 5.0 0.00 0.00 0.00 78 1005.4
20260830232009 78 184 3.0 3.0 0.00 0.00 0.00 78 1005.4
20260830231505 78 185 3.0 3.0 0.00 0.00 0.00 77 1005.4
20260830231004 79 179 3.0 5.0 0.00 0.00 0.00 77 1005.4
20260830230500 79 173 0.0 3.0 0.00 0.00 0.00 77 1005.3
20260830225958 79 193 4.0 6.0 0.00 0.00 0.00 76 1005.5
20260830225455 79 190 3.0 3.0 0.00 0.00 0.00 76 1005.5
20260830224954 79 140 1.0 2.0 0.00 0.00 0.00 76 1005.6
20260830224452 79 279 1.0 2.0 0.00 0.00 0.00 75 1005.5
20260830223949 79 184 2.0 3.0 0.00 0.00 0.00 75 1005.5
20260830223446 79 204 3.0 3.0 0.00 0.00 0.00 75 1005.6
20260830222944 80 230 3.0 3.0 0.00 0.00 0.00 75 1005.6
20260830222440 80 237 3.0 3.0 0.00 0.00 0.00 75 1005.7
20260830221930 80 109 1.0 6.0 0.00 0.00 0.00 74 1005.6
20260830221426 80 240 3.0 5.0 0.00 0.00 0.00 74 1005.5
20260830220921 80 227 3.0 5.0 0.00 0.00 0.00 73 1005.5
20260830220416 80 166 3.0 5.0 0.00 0.00 0.00 73 1005.5
20260830215913 80 254 3.0 3.0 0.00 0.00 0.00 73 1005.7
20260830215409 80 249 3.0 3.0 0.00 0.00 0.00 73 1005.8
20260830214903 80 303 3.0 3.0 0.00 0.00 0.00 72 1005.6
20260830214358 80 24 1.0 2.0 0.00 0.00 0.00 72 1005.4
20260830213853 80 288 2.0 3.0 0.00 0.00 0.00 72 1005.6
20260830213348 80 238 2.0 3.0 0.00 0.00 0.00 72 1005.7
20260830212844 80 347 1.0 2.0 0.00 0.00 0.00 72 1005.6
20260830212339 80 241 3.0 3.0 0.00 0.00 0.00 72 1005.6
20260830211838 80 128 1.0 2.0 0.00 0.00 0.00 72 1005.5
20260830211332 80 276 1.0 2.0 0.00 0.00 0.00 72 1005.8
20260830210828 80 210 2.0 3.0 0.00 0.00 0.00 72 1005.6
20260830210327 80 262 2.0 3.0 0.00 0.00 0.00 72 1005.6
20260830205826 80 232 2.0 2.0 0.00 0.00 0.00 72 1005.6
20260830205320 80 246 2.0 2.0 0.00 0.00 0.00 72 1005.8
20260830204815 80 223 1.0 1.0 0.00 0.00 0.00 73 1005.9
20260830204314 80 238 2.0 2.0 0.00 0.00 0.00 73 1005.7
20260830203810 80 298 2.0 2.0 0.00 0.00 0.00 72 1005.8
20260830203306 80 310 2.0 3.0 0.00 0.00 0.00 72 1005.6
20260830202805 80 333 1.0 2.0 0.00 0.00 0.00 73 1005.7
20260830202300 80 303 3.0 3.0 0.00 0.00 0.00 73 1005.6
20260830201800 80 10 1.0 2.0 0.00 0.00 0.00 73 1005.5
20260830201249 80 244 2.0 3.0 0.00 0.00 0.00 73 1005.4
20260830200744 80 258 2.0 3.0 0.00 0.00 0.00 73 1005.7
20260830200243 80 284 2.0 3.0 0.00 0.00 0.00 73 1005.7
20260830195739 81 304 3.0 5.0 0.00 0.00 0.00 73 1005.6
20260830195237 81 247 3.0 3.0 0.00 0.00 0.00 73 1005.8
20260830194736 81 250 2.0 2.0 0.00 0.00 0.00 73 1005.4
20260830194231 81 339 3.0 5.0 0.00 0.00 0.00 74 1005.4
20260830193726 81 251 4.0 5.0 0.00 0.00 0.00 73 1005.5
20260830193220 81 281 3.0 5.0 0.00 0.00 0.00 73 1005.4
20260830192716 81 237 3.0 3.0 0.00 0.00 0.00 73 1005.7
20260830192211 81 249 2.0 3.0 0.00 0.00 0.00 73 1005.5
20260830191707 81 295 3.0 3.0 0.00 0.00 0.00 73 1005.6
20260830191201 81 269 3.0 3.0 0.00 0.00 0.00 73 1005.8
20260830190656 81 293 3.0 5.0 0.00 0.00 0.00 73 1005.8
20260830190152 81 256 3.0 3.0 0.00 0.00 0.00 73 1005.7
20260830185650 81 260 3.0 5.0 0.00 0.00 0.00 73 1005.6
20260830185146 81 251 2.0 3.0 0.00 0.00 0.00 73 1005.7
20260830184645 81 263 3.0 6.0 0.00 0.00 0.00 73 1005.9
20260830184139 81 302 3.0 6.0 0.00 0.00 0.00 73 1005.5
20260830183640 81 274 6.0 7.0 0.00 0.00 0.00 73 1005.5